Change the Weather History Date:

Monday, March 18, 2013

  Actual Average Record
Temperature  
Mean Temperature 38 °F -  
Max Temperature 51 °F 53 °F 73 °F (2007)
Min Temperature 26 °F 26 °F 21 °F (2006)
Degree Days  
Heating Degree Days 26    
Moisture  
Dew Point 7 °F    
Average Humidity 27    
Maximum Humidity 48    
Minimum Humidity 17    
Precipitation  
Precipitation 0.00 in - - ()
Sea Level Pressure  
Sea Level Pressure 29.89 in    
Wind  
Wind Speed 12 mph (WNW)    
Max Wind Speed 28 mph    
Max Gust Speed 39 mph    
Visibility 10 miles    
Events      
Averages and records for this station are not official NWS values.
T = Trace of Precipitation, MM = Missing Value Source: NWS Daily Summary

Daily Weather History Graph

Daily Weather History Graph

Search for Another Location

Airport or City:

Trip Planner

Search our weather history database for the weather conditions in past years. The results will help you decide how hot, cold, wet, or windy it might be!

Date:

Astronomy

Mar. 18, 2013 Rise Set
Actual Time 7:06 AM MDT 7:10 PM MDT
Civil Twilight 6:39 AM MDT 7:37 PM MDT
Nautical Twilight 6:07 AM MDT 8:09 PM MDT
Astronomical Twilight 5:35 AM MDT 8:41 PM MDT
Moon 11:06 AM MDT (3/18) 1:12 AM MDT (3/18)
Length of Visible Light 12h 58m
Length of Day
12h 04m
Waxing Crescent, 41% of the Moon is Illuminated
Mar 18
Waxing Crescent
Mar 19
First Quarter
Mar 27
Full
Apr 2
Last Quarter
Apr 10
New

Hourly Weather History & Observations

Time (MDT) Temp. Windchill Dew Point Humidity Pressure Visibility Wind Dir Wind Speed Gust Speed Precip Events Conditions
12:35 AM 32.0 °F 22.5 °F 1.4 °F 27% 29.88 in 10.0 mi NW 12.7 mph 24.2 mph N/A   Clear
12:55 AM 33.8 °F 23.5 °F -0.4 °F 23% 29.88 in 10.0 mi NW 16.1 mph 26.5 mph N/A   Clear
1:15 AM 32.0 °F 20.5 °F -0.4 °F 25% 29.89 in 10.0 mi NW 18.4 mph - N/A   Clear
1:35 AM 32.0 °F 20.8 °F -2.2 °F 23% 29.88 in 10.0 mi NW 17.3 mph 26.5 mph N/A   Clear
2:15 AM 28.4 °F 19.1 °F -2.2 °F 27% 29.90 in 10.0 mi NW 10.4 mph - N/A   Clear
2:35 AM 32.0 °F 20.5 °F 1.4 °F 27% 29.90 in 10.0 mi West 18.4 mph 24.2 mph N/A   Clear
2:55 AM 33.8 °F 24.3 °F -0.4 °F 23% 29.90 in 10.0 mi WNW 13.8 mph - N/A   Clear
3:15 AM 30.2 °F 18.1 °F -2.2 °F 25% 29.90 in 10.0 mi WNW 18.4 mph 27.6 mph N/A   Clear
3:35 AM 30.2 °F 19.3 °F -2.2 °F 25% 29.89 in 10.0 mi NNW 15.0 mph - N/A   Clear
3:55 AM 28.4 °F 19.1 °F -0.4 °F 29% 29.88 in 10.0 mi NW 10.4 mph - N/A   Clear
4:15 AM 28.4 °F 22.2 °F -0.4 °F 29% 29.88 in 10.0 mi NNW 5.8 mph - N/A   Clear
4:35 AM 28.4 °F 22.2 °F -0.4 °F 29% 29.87 in 10.0 mi North 5.8 mph - N/A   Clear
4:55 AM 28.4 °F 22.2 °F 1.4 °F 31% 29.86 in 10.0 mi North 5.8 mph - N/A   Clear
5:15 AM 28.4 °F 23.3 °F 1.4 °F 31% 29.87 in 10.0 mi NNE 4.6 mph - N/A   Clear
5:35 AM 28.4 °F 22.2 °F 1.4 °F 31% 29.87 in 10.0 mi NNE 5.8 mph - N/A   Clear
5:55 AM 26.6 °F 22.6 °F 1.4 °F 34% 29.88 in 10.0 mi South 3.5 mph - N/A   Clear
6:15 AM 26.6 °F - 1.4 °F 34% 29.88 in 10.0 mi Calm Calm - N/A   Clear
6:35 AM 26.6 °F - 3.2 °F 37% 29.89 in 10.0 mi Calm Calm - N/A   Clear
6:55 AM 26.6 °F 22.6 °F 3.2 °F 37% 29.89 in 10.0 mi SSE 3.5 mph - N/A   Clear
7:15 AM 26.6 °F 22.6 °F 3.2 °F 37% 29.89 in 10.0 mi SSE 3.5 mph - N/A   Clear
7:35 AM 26.6 °F 21.2 °F 1.4 °F 34% 29.90 in 10.0 mi South 4.6 mph - N/A   Clear
7:55 AM 28.4 °F 23.3 °F 3.2 °F 34% 29.90 in 10.0 mi SSE 4.6 mph - N/A   Clear
8:15 AM 28.4 °F 22.2 °F 8.6 °F 43% 29.91 in 10.0 mi South 5.8 mph - N/A   Clear
8:35 AM 30.2 °F 25.4 °F 8.6 °F 40% 29.91 in 10.0 mi South 4.6 mph - N/A   Clear
9:15 AM 35.6 °F 31.7 °F 6.8 °F 30% 29.92 in 10.0 mi South 4.6 mph - N/A   Clear
9:35 AM 37.4 °F 34.9 °F 3.2 °F 24% 29.92 in 10.0 mi NW 3.5 mph - N/A   Clear
9:55 AM 39.2 °F 35.9 °F 5.0 °F 24% 29.92 in 10.0 mi West 4.6 mph - N/A   Clear
10:15 AM 39.2 °F 35.9 °F 5.0 °F 24% 29.92 in 10.0 mi WSW 4.6 mph - N/A   Clear
10:35 AM 41.0 °F - 6.8 °F 24% 29.92 in 10.0 mi Calm Calm - N/A   Clear
10:55 AM 42.8 °F 37.0 °F 6.8 °F 23% 29.92 in 10.0 mi WSW 10.4 mph - N/A   Clear
11:15 AM 42.8 °F 41.1 °F 6.8 °F 23% 29.92 in 10.0 mi SSW 3.5 mph - N/A   Clear
11:35 AM 44.6 °F 40.2 °F 8.6 °F 23% 29.91 in 10.0 mi WSW 8.1 mph - N/A   Clear
11:55 AM 44.6 °F 37.2 °F 8.6 °F 23% 29.90 in 10.0 mi WNW 17.3 mph - N/A   Clear
12:15 PM 48.2 °F - 8.6 °F 20% 29.89 in 10.0 mi WNW 23.0 mph 29.9 mph N/A   Clear
12:35 PM 48.2 °F - 8.6 °F 20% 29.89 in 10.0 mi WNW 21.9 mph 28.8 mph N/A   Partly Cloudy
12:55 PM 48.2 °F - 8.6 °F 20% 29.89 in 10.0 mi WNW 19.6 mph 29.9 mph N/A   Clear
1:15 PM 48.2 °F - 8.6 °F 20% 29.89 in 10.0 mi WNW 24.2 mph 32.2 mph N/A   Partly Cloudy
1:35 PM 48.2 °F - 8.6 °F 20% 29.88 in 10.0 mi NW 23.0 mph 31.1 mph N/A   Partly Cloudy
1:55 PM 48.2 °F - 8.6 °F 20% 29.86 in 10.0 mi WNW 24.2 mph 28.8 mph N/A   Partly Cloudy
2:15 PM 50.0 °F - 8.6 °F 19% 29.85 in 10.0 mi West 16.1 mph 26.5 mph N/A   Partly Cloudy
2:35 PM 50.0 °F - 8.6 °F 19% 29.85 in 10.0 mi WNW 24.2 mph 39.1 mph N/A   Partly Cloudy
2:55 PM 50.0 °F - 8.6 °F 19% 29.86 in 10.0 mi WNW 27.6 mph 36.8 mph N/A   Partly Cloudy
3:15 PM 48.2 °F - 8.6 °F 20% 29.85 in 10.0 mi WNW 25.3 mph 33.4 mph N/A   Clear
3:35 PM 50.0 °F - 8.6 °F 19% 29.84 in 10.0 mi WNW 17.3 mph 31.1 mph N/A   Clear
3:55 PM 51.8 °F - 8.6 °F 18% 29.84 in 10.0 mi WSW 21.9 mph 29.9 mph N/A   Scattered Clouds
4:15 PM 50.0 °F - 6.8 °F 17% 29.84 in 10.0 mi West 17.3 mph 35.7 mph N/A   Partly Cloudy
4:35 PM 50.0 °F - 6.8 °F 17% 29.85 in 10.0 mi WNW 20.7 mph 28.8 mph N/A   Clear
4:55 PM 50.0 °F - 8.6 °F 19% 29.85 in 10.0 mi West 16.1 mph 24.2 mph N/A   Partly Cloudy
5:15 PM 48.2 °F - 8.6 °F 20% 29.84 in 10.0 mi West 21.9 mph 33.4 mph N/A   Partly Cloudy
5:35 PM 48.2 °F - 8.6 °F 20% 29.84 in 10.0 mi West 23.0 mph 28.8 mph N/A   Scattered Clouds
5:55 PM 48.2 °F - 8.6 °F 20% 29.85 in 10.0 mi West 18.4 mph 29.9 mph N/A   Partly Cloudy
6:15 PM 46.4 °F 40.7 °F 8.6 °F 22% 29.85 in 10.0 mi West 12.7 mph - N/A   Clear
6:35 PM 44.6 °F 39.2 °F 10.4 °F 25% 29.86 in 10.0 mi NW 10.4 mph - N/A   Clear
6:55 PM 44.6 °F 39.7 °F 10.4 °F 25% 29.86 in 10.0 mi WNW 9.2 mph - N/A   Clear
7:15 PM 44.6 °F 40.2 °F 10.4 °F 25% 29.86 in 10.0 mi WNW 8.1 mph 18.4 mph N/A   Clear
7:35 PM 44.6 °F 38.1 °F 12.2 °F 27% 29.87 in 10.0 mi WNW 13.8 mph - N/A   Clear
7:55 PM 42.8 °F 36.6 °F 12.2 °F 29% 29.87 in 10.0 mi WNW 11.5 mph - N/A   Clear
8:15 PM 41.0 °F 39.0 °F 12.2 °F 31% 29.88 in 10.0 mi WNW 3.5 mph - N/A   Clear
8:35 PM 42.8 °F - 15.8 °F 34% 29.89 in 10.0 mi Calm Calm - N/A   Clear
8:55 PM 41.0 °F 35.2 °F 15.8 °F 36% 29.89 in 10.0 mi NNW 9.2 mph - N/A   Clear
9:15 PM 41.0 °F 34.7 °F 15.8 °F 36% 29.90 in 10.0 mi NNW 10.4 mph - N/A   Clear
9:55 PM 41.0 °F 36.4 °F 15.8 °F 36% 29.91 in 10.0 mi North 6.9 mph - N/A   Partly Cloudy
10:15 PM 39.2 °F 35.0 °F 15.8 °F 39% 29.92 in 10.0 mi NNE 5.8 mph - N/A   Partly Cloudy
10:35 PM 41.0 °F 37.1 °F 15.8 °F 36% 29.92 in 10.0 mi North 5.8 mph - N/A   Partly Cloudy
10:55 PM 39.2 °F 34.2 °F 14.0 °F 36% 29.92 in 10.0 mi NW 6.9 mph - N/A   Mostly Cloudy
11:15 PM 41.0 °F 34.7 °F 15.8 °F 36% 29.93 in 10.0 mi West 10.4 mph - N/A   Mostly Cloudy
11:35 PM 37.4 °F 33.8 °F 15.8 °F 41% 29.93 in 10.0 mi SSW 4.6 mph - N/A   Scattered Clouds
11:55 PM 37.4 °F 34.9 °F 19.4 °F 48% 29.92 in 10.0 mi South 3.5 mph - N/A   Clear